Weather History for KAUS - January, 2014

Change the Weather History Date:

Tuesday, January 7, 2014

  Actual Average Record
Temperature  
Mean Temperature 29 °F 49 °F  
Max Temperature 46 °F 62 °F 80 °F (1978)
Min Temperature 12 °F 36 °F 12 °F (2014)
Degree Days  
Heating Degree Days 36 16  
Month to date heating degree days 171 112  
Since 1 July heating degree days 1040 859  
Cooling Degree Days 0 0  
Month to date cooling degree days 0 0  
Year to date cooling degree days 0 0  
Moisture  
Dew Point 12 °F    
Average Humidity 54    
Maximum Humidity 88    
Minimum Humidity 19    
Precipitation  
Precipitation 0.00 in 0.07 in 2.46 in (2000)
Month to date precipitation 0.00 0.54  
Year to date precipitation 0.00 0.54  
Snow  
Snow 0.00 in - - ()
Month to date snowfall 0.0  
Since 1 July snowfall T  
Snow Depth 0.00 in    
Sea Level Pressure  
Sea Level Pressure 30.53 in    
Wind  
Wind Speed 7 mph (South)    
Max Wind Speed 17 mph    
Max Gust Speed 24 mph    
Visibility 10 miles    
Events      
T = Trace of Precipitation, MM = Missing Value Source: NWS Daily Summary

Daily Weather History Graph

Daily Weather History Graph

Search for Another Location

Airport or City:

Trip Planner

Search our weather history database for the weather conditions in past years. The results will help you decide how hot, cold, wet, or windy it might be!

Date:

Astronomy

Jan. 07, 2014 Rise Set
Actual Time 7:28 AM CST 5:46 PM CST
Civil Twilight 7:01 AM CST 6:12 PM CST
Nautical Twilight 6:32 AM CST 6:42 PM CST
Astronomical Twilight 6:03 AM CST 7:11 PM CST
Moon 11:49 AM CST (1/7) No Moon Set
Length of Visible Light 11h 10m
Length of Day
10h 18m
Waxing Crescent, 46% of the Moon is Illuminated
Jan 7
Waxing Crescent
Jan 7
First Quarter
Jan 15
Full
Jan 23
Last Quarter
Jan 30
New

Hourly Weather History & Observations

Time (CST) Temp. Windchill Dew Point Humidity Pressure Visibility Wind Dir Wind Speed Gust Speed Precip Events Conditions
12:53 AM 19.9 °F - 14.0 °F 78% 30.65 in 10.0 mi Calm Calm - N/A   Partly Cloudy
1:53 AM 19.0 °F - 15.1 °F 85% 30.64 in 10.0 mi Calm Calm - N/A   Partly Cloudy
2:53 AM 18.0 °F - 14.0 °F 84% 30.64 in 10.0 mi Calm Calm - N/A   Scattered Clouds
3:53 AM 18.0 °F 12.7 °F 12.9 °F 81% 30.64 in 10.0 mi South 3.5 mph - N/A   Partly Cloudy
4:53 AM 18.0 °F - 14.0 °F 84% 30.64 in 10.0 mi Calm Calm - N/A   Partly Cloudy
5:53 AM 15.1 °F 9.4 °F 12.0 °F 88% 30.65 in 10.0 mi West 3.5 mph - N/A   Partly Cloudy
6:53 AM 16.0 °F - 12.9 °F 88% 30.65 in 10.0 mi Calm Calm - N/A   Partly Cloudy
7:53 AM 15.1 °F - 12.0 °F 88% 30.65 in 10.0 mi Calm Calm - N/A   Scattered Clouds
8:53 AM 25.0 °F - 17.1 °F 72% 30.64 in 10.0 mi Calm Calm - N/A   Scattered Clouds
9:53 AM 32.0 °F 25.6 °F 12.0 °F 44% 30.64 in 10.0 mi South 6.9 mph - N/A   Scattered Clouds
10:53 AM 37.0 °F 29.3 °F 3.9 °F 25% 30.62 in 10.0 mi South 11.5 mph - N/A   Partly Cloudy
11:53 AM 39.9 °F 33.4 °F 1.0 °F 20% 30.58 in 10.0 mi SSE 10.4 mph - N/A   Partly Cloudy
12:53 PM 43.0 °F 36.0 °F 3.9 °F 20% 30.52 in 10.0 mi SSE 13.8 mph 21.9 mph N/A   Partly Cloudy
1:53 PM 45.0 °F 38.9 °F 5.0 °F 19% 30.48 in 10.0 mi South 12.7 mph 17.3 mph N/A   Scattered Clouds
2:53 PM 45.0 °F 38.9 °F 7.0 °F 21% 30.46 in 10.0 mi South 12.7 mph 18.4 mph N/A   Overcast
3:53 PM 45.0 °F 38.5 °F 7.0 °F 21% 30.45 in 10.0 mi South 13.8 mph - N/A   Overcast
4:53 PM 44.1 °F 37.4 °F 8.1 °F 23% 30.44 in 10.0 mi South 13.8 mph - N/A   Overcast
5:53 PM 43.0 °F 37.2 °F 7.0 °F 23% 30.43 in 10.0 mi South 10.4 mph - N/A   Overcast
6:53 PM 43.0 °F 37.7 °F 9.0 °F 25% 30.42 in 10.0 mi South 9.2 mph - N/A   Overcast
7:53 PM 43.0 °F 38.2 °F 10.9 °F 27% 30.42 in 10.0 mi South 8.1 mph - N/A   Overcast
8:53 PM 43.0 °F 37.7 °F 17.1 °F 35% 30.41 in 10.0 mi South 9.2 mph - N/A   Overcast
9:53 PM 43.0 °F 37.7 °F 21.9 °F 43% 30.40 in 10.0 mi South 9.2 mph - N/A   Overcast
10:53 PM 43.0 °F 38.2 °F 24.1 °F 47% 30.38 in 10.0 mi South 8.1 mph - N/A   Overcast
11:53 PM 43.0 °F 37.2 °F 26.1 °F 51% 30.36 in 10.0 mi South 10.4 mph - N/A   Overcast